This is the latest recevied weather packets stored in our database for station/object AE6BH. If no packets are shown the sender has not sent any weather packets the latest 10 day(s).
| Time | Temp. | Humidity | Pressure | Rain* | Wind** | Luminosity | Snow |
|---|---|---|---|---|---|---|---|
| 1778140815 | 11.11° C | 84% | 1017.6 hPa | 0 mm | - | 0 W/m² | - |
| 1778140510 | 11.11° C | 84% | 1017.7 hPa | 0 mm | - | 0 W/m² | - |
| 1778140207 | 11.67° C | 84% | 1017.7 hPa | 0 mm | - | 0 W/m² | - |
| 1778139903 | 11.67° C | 84% | 1017.8 hPa | 0 mm | - | 0 W/m² | - |
| 1778139602 | 11.67° C | 83% | 1017.9 hPa | 0 mm | - | 0 W/m² | - |
| 1778139298 | 11.67° C | 83% | 1017.8 hPa | 0 mm | - | 0 W/m² | - |
| 1778138994 | 11.11° C | 82% | 1017.8 hPa | 0 mm | - | 0 W/m² | - |
| 1778138692 | 11.11° C | 82% | 1017.7 hPa | 0 mm | - | 0 W/m² | - |
| 1778138389 | 11.67° C | 82% | 1018.1 hPa | 0 mm | - | 0 W/m² | - |
| 1778138086 | 11.67° C | 82% | 1017.8 hPa | 0 mm | - | 0 W/m² | - |
| 1778137783 | 11.67° C | 82% | 1018.1 hPa | 0 mm | - | 0 W/m² | - |
| 1778137480 | 11.67° C | 82% | 1017.8 hPa | 0 mm | - | 0 W/m² | - |
| 1778137177 | 11.67° C | 82% | 1018 hPa | 0 mm | - | 0 W/m² | - |
| 1778136873 | 12.22° C | 82% | 1017.9 hPa | 0 mm | - | 0 W/m² | - |
| 1778136571 | 11.67° C | 81% | 1017.8 hPa | 0 mm | - | 0 W/m² | - |
| 1778136269 | 12.22° C | 81% | 1017.9 hPa | 0 mm | - | 0 W/m² | - |
| 1778135966 | 12.22° C | 81% | 1017.9 hPa | 0 mm | - | 0 W/m² | - |
| 1778135663 | 12.22° C | 81% | 1018 hPa | 0 mm | - | 0 W/m² | - |
| 1778135360 | 12.22° C | 81% | 1017.8 hPa | 0 mm | - | 0 W/m² | - |
| 1778135057 | 12.22° C | 81% | 1017.9 hPa | 0 mm | - | 0 W/m² | - |
| 1778134749 | 12.22° C | 80% | 1018 hPa | 0 mm | - | 0 W/m² | - |
| 1778134447 | 12.78° C | 80% | 1018 hPa | 0 mm | - | 0 W/m² | - |
| 1778134145 | 12.78° C | 80% | 1018 hPa | 0 mm | - | 0 W/m² | - |
| 1778133841 | 12.78° C | 80% | 1018 hPa | 0 mm | - | 0 W/m² | - |
| 1778133538 | 12.78° C | 80% | 1018 hPa | 0 mm | - | 0 W/m² | - |
* Rain latest hour (hover to see other rain measurements)
** Current wind speed in m/s (hover to see current wind gust speed)